Regional Weather Roundup
Issued by NWS

Home | Current Version | Previous Version | Text Only | Print | Product List | Glossary On
Versions: 1 2 3 4 5 6 7 8 9 10 11 12 13 14 15 16 17 18 19 20 21 22 23 24 25 26 27 28 29 30 31 32 33 34 35 36 37 38 39 40 41 42 43 44 45 46 47 48 49 50
000
ASUS43 KLSX 121010
RWRMO

WEATHER SUMMARY FOR MISSOURI
NATIONAL WEATHER SERVICE SPRINGFIELD MO
400 AM CST FRI FEB 12 2016

NOTE: "FAIR" INDICATES FEW OR NO CLOUDS BELOW 12,000 FEET WITH NO
       SIGNIFICANT WEATHER AND/OR OBSTRUCTIONS TO VISIBILITY.
       CURRENT SKY AND/OR WEATHER CONDITIONS ARE NOT AVAILABLE FOR
       CHILLICOTHE AND FARMINGTON.

MOZ001>031-035>038-043-044-053-054-121100-
...NORTHERN AND WESTERN MISSOURI...

CITY           SKY/WX    TMP DP  RH WIND       PRES   REMARKS
KANSAS CTY INT CLOUDY    29  21  72 NE7       30.21R WCI  22
KANSAS C DTWN  CLOUDY    31  21  66 E6        30.22R WCI  25
LEE`S SUMMIT   CLOUDY    29  21  72 NE6       30.20R WCI  23
ST JOSEPH      CLOUDY    27  21  78 N5        30.25R WCI  22
CHILLICOTHE      N/A     27  17  66 CALM      30.24R
KIRKSVILLE     CLOUDY    21  16  81 CALM      30.21S

$$
MOZ066>068-077>081-088>096-101>105-121100-
...SOUTHWEST MISSOURI...

CITY           SKY/WX    TMP DP  RH WIND       PRES   REMARKS
SPRINGFIELD    CLEAR     30  20  66 N5        30.15R WCI  25
JOPLIN         CLEAR     27  22  81 S6        30.17R WCI  20

$$
MOZ032>034-039>042-045>050-055>058-069>072-121100-
...CENTRAL MISSOURI...

CITY           SKY/WX    TMP DP  RH WIND       PRES   REMARKS
COLUMBIA       CLOUDY    26  23  88 CALM      30.19R
JEFFERSON CITY CLOUDY    27  23  85 CALM      30.21S
ROLLA          CLOUDY    27  22  81 NE3       30.14S
SEDALIA        CLOUDY    29  24  82 E3        30.21R
WHITEMAN AFB   CLOUDY    28  25  87 NE6       30.19R WCI  22
WARRENSBURG    CLOUDY    28  25  86 N6        30.21R WCI  22
OSAGE BEACH    CLOUDY    28  19  69 NE3       30.18S

$$
MOZ051-052-059>065-121100-
...EAST CENTRAL MISSOURI...

CITY           SKY/WX    TMP DP  RH WIND       PRES   REMARKS
ST LOUIS INTL  FLURRIES  26  21  81 E3        30.21F
SPIRIT OF STL  CLOUDY    25  21  85 NE6       30.20F WCI  18
ST CHARLES     CLOUDY    24  22  91 NE3       30.21F

$$
MOZ072>076-082>087-097>100-106>115-121100-
...SOUTH CENTRAL AND SOUTHEAST MISSOURI...

CITY           SKY/WX    TMP DP  RH WIND       PRES   REMARKS
CAPE GIRARDEAU CLOUDY    29  24  82 CALM      30.19F
POPLAR BLUFF   MOCLDY    29  22  75 NE3       30.18F
WEST PLAINS    CLOUDY    28  19  69 NE3       30.16R

$$



USA.gov is the U.S. government's official web portal to all federal, state and local government web resources and services.